TimeAKDT,TemperatureF,Dew PointF,Humidity,Sea Level PressureIn,VisibilityMPH,Wind Direction,Wind SpeedMPH,Gust SpeedMPH,PrecipitationIn,Events,Conditions,WindDirDegrees,DateUTC
12:53 AM,53.1,44.1,71,29.87,10.0,Calm,Calm,-,N/A,,Clear,0,2013-08-05 08:53:00
1:53 AM,51.1,43.0,74,29.87,10.0,Calm,Calm,-,N/A,,Clear,0,2013-08-05 09:53:00
2:53 AM,50.0,44.1,80,29.88,10.0,Calm,Calm,-,N/A,,Clear,0,2013-08-05 10:53:00
3:53 AM,48.0,43.0,83,29.88,10.0,Calm,Calm,-,N/A,,Scattered Clouds,0,2013-08-05 11:53:00
4:53 AM,48.9,43.0,80,29.88,10.0,South,3.5,-,N/A,,Overcast,180,2013-08-05 12:53:00
5:53 AM,51.1,45.0,80,29.89,10.0,Calm,Calm,-,N/A,,Overcast,0,2013-08-05 13:53:00
6:53 AM,52.0,48.0,86,29.91,10.0,Calm,Calm,-,0.00,Rain,Light Rain,0,2013-08-05 14:53:00
7:53 AM,55.9,50.0,80,29.92,10.0,Calm,Calm,-,0.00,,Partly Cloudy,0,2013-08-05 15:53:00
8:53 AM,57.9,50.0,75,29.92,10.0,Calm,Calm,-,N/A,,Mostly Cloudy,0,2013-08-05 16:53:00
9:53 AM,60.1,51.1,72,29.92,10.0,Calm,Calm,-,N/A,,Overcast,0,2013-08-05 17:53:00
10:53 AM,61.0,51.1,70,29.93,10.0,Calm,Calm,-,0.00,,Overcast,0,2013-08-05 18:53:00
11:53 AM,62.1,52.0,70,29.94,10.0,Calm,Calm,-,0.00,,Overcast,0,2013-08-05 19:53:00
12:53 PM,62.1,53.1,72,29.95,10.0,Calm,Calm,-,0.00,Rain,Light Rain,0,2013-08-05 20:53:00
1:53 PM,60.1,55.0,83,29.97,10.0,Calm,Calm,-,0.02,Rain,Light Rain,0,2013-08-05 21:53:00
2:53 PM,63.0,54.0,72,29.96,10.0,Calm,Calm,-,0.00,,Overcast,0,2013-08-05 22:53:00
3:53 PM,66.0,52.0,60,29.95,10.0,NE,3.5,-,N/A,,Clear,40,2013-08-05 23:53:00
4:53 PM,68.0,51.1,55,29.94,10.0,Calm,Calm,-,N/A,,Clear,0,2013-08-06 00:53:00
5:53 PM,69.1,50.0,51,29.93,10.0,NNE,4.6,-,N/A,,Partly Cloudy,30,2013-08-06 01:53:00
6:53 PM,69.1,51.1,53,29.93,10.0,NW,4.6,-,N/A,,Clear,320,2013-08-06 02:53:00
7:53 PM,69.1,48.0,47,29.92,10.0,NE,3.5,-,N/A,,Clear,50,2013-08-06 03:53:00
8:53 PM,66.9,51.1,57,29.93,10.0,Calm,Calm,-,N/A,,Clear,0,2013-08-06 04:53:00
9:53 PM,57.9,50.0,75,29.93,10.0,Calm,Calm,-,N/A,,Clear,0,2013-08-06 05:53:00
10:53 PM,51.1,46.9,86,29.95,10.0,Calm,Calm,-,N/A,,Clear,0,2013-08-06 06:53:00
11:53 PM,46.0,43.0,89,29.97,10.0,South,3.5,-,N/A,,Clear,190,2013-08-06 07:53:00